When you browse on this site, cookies collect data to enhance your experience and personalize the content and advertising you see.
Visit our Privacy Policy to learn more. By continuing to use the site, you agree to this use of cookies and data.
  • în România
  • Lista ţărilor
  • Pe 7 zile
  • Temperatura apei
  • Hartă satelitară
  • Meteo pe hartă
  • Widget-uri
  • user-avatar
    Intrare

    Meteo pe oră la Düsseldorf

    Astăzi, 24 Mai, Vineri

    Timp Temperatura Precipitaţii Vânt Presiune Umiditate
    00:00 +15°C° 0 mm 1 m/s 759 mmHg 54%
    01:00 +15°C° 0 mm 1 m/s 759 mmHg 57%
    02:00 +14°C° 0 mm 1 m/s 759 mmHg 59%
    03:00 +14°C° 0 mm 1 m/s 759 mmHg 61%
    04:00 +15°C° 0 mm 1 m/s 759 mmHg 61%
    05:00 +16°C° 0 mm 1 m/s 758 mmHg 61%
    06:00 +16°C° 0 mm 1 m/s 758 mmHg 61%
    07:00 +19°C° 0 mm 1 m/s 758 mmHg 56%
    08:00 +20°C° 0 mm 2 m/s 758 mmHg 52%
    09:00 +21°C° 0 mm 2 m/s 758 mmHg 48%
    10:00 +23°C° 0.2 mm 2 m/s 758 mmHg 47%
    11:00 +24°C° 0.2 mm 2 m/s 758 mmHg 46%
    12:00 +25°C° 0.2 mm 3 m/s 757 mmHg 45%
    13:00 +25°C° 0.2 mm 3 m/s 757 mmHg 45%
    14:00 +24°C° 0.2 mm 3 m/s 757 mmHg 45%
    15:00 +23°C° 0.2 mm 4 m/s 757 mmHg 45%
    16:00 +23°C° 0 mm 4 m/s 757 mmHg 48%
    17:00 +22°C° 0 mm 4 m/s 757 mmHg 51%
    18:00 +21°C° 0 mm 4 m/s 757 mmHg 54%
    19:00 +19°C° 0 mm 3 m/s 758 mmHg 56%
    20:00 +17°C° 0 mm 3 m/s 758 mmHg 57%
    21:00 +16°C° 0 mm 3 m/s 758 mmHg 59%
    22:00 +15°C° 0 mm 2 m/s 759 mmHg 63%
    23:00 +14°C° 0 mm 2 m/s 759 mmHg 68%

    Mâine, 25 Mai, Sâmbătă

    Timp Temperatura Precipitaţii Vânt Presiune Umiditate
    00:00 +13°C° 0 mm 2 m/s 759 mmHg 73%
    01:00 +12°C° 0 mm 2 m/s 759 mmHg 77%
    02:00 +12°C° 0 mm 2 m/s 759 mmHg 81%
    03:00 +11°C° 0 mm 1 m/s 759 mmHg 85%
    04:00 +12°C° 0 mm 1 m/s 759 mmHg 82%
    05:00 +12°C° 0 mm 2 m/s 759 mmHg 79%
    06:00 +13°C° 0 mm 2 m/s 759 mmHg 76%
    07:00 +14°C° 0 mm 1 m/s 759 mmHg 70%
    08:00 +16°C° 0 mm 1 m/s 759 mmHg 64%
    09:00 +18°C° 0 mm 1 m/s 760 mmHg 57%
    10:00 +17°C° 0 mm 2 m/s 759 mmHg 56%
    11:00 +18°C° 0 mm 2 m/s 759 mmHg 55%
    12:00 +18°C° 0 mm 2 m/s 759 mmHg 53%
    13:00 +19°C° 0 mm 2 m/s 759 mmHg 53%
    14:00 +19°C° 0 mm 2 m/s 758 mmHg 53%
    15:00 +19°C° 0 mm 2 m/s 758 mmHg 53%
    16:00 +18°C° 0 mm 2 m/s 758 mmHg 55%
    17:00 +19°C° 0 mm 1 m/s 758 mmHg 56%
    18:00 +19°C° 0 mm 1 m/s 758 mmHg 57%
    19:00 +18°C° 0 mm 1 m/s 759 mmHg 61%
    20:00 +15°C° 0 mm 0 m/s 759 mmHg 64%
    21:00 +14°C° 0 mm 0 m/s 759 mmHg 68%
    22:00 +13°C° 0 mm 0 m/s 759 mmHg 70%
    23:00 +14°C° 0 mm 1 m/s 759 mmHg 73%

    Poimâine, 26 Mai, Duminică

    Timp Temperatura Precipitaţii Vânt Presiune Umiditate
    00:00 +13°C° 0 mm 1 m/s 759 mmHg 75%
    01:00 +13°C° 0 mm 2 m/s 758 mmHg 79%
    02:00 +12°C° 0 mm 2 m/s 758 mmHg 82%
    03:00 +12°C° 0 mm 2 m/s 758 mmHg 86%
    04:00 +12°C° 0 mm 2 m/s 758 mmHg 82%
    05:00 +12°C° 0 mm 3 m/s 758 mmHg 79%
    06:00 +12°C° 0 mm 3 m/s 758 mmHg 75%
    07:00 +14°C° 0 mm 3 m/s 758 mmHg 68%
    08:00 +17°C° 0 mm 3 m/s 758 mmHg 61%
    09:00 +18°C° 0 mm 3 m/s 757 mmHg 55%
    10:00 +19°C° 0 mm 3 m/s 757 mmHg 56%
    11:00 +20°C° 0 mm 4 m/s 757 mmHg 57%
    12:00 +21°C° 0 mm 4 m/s 756 mmHg 58%
    13:00 +21°C° 0.2 mm 4 m/s 756 mmHg 62%
    14:00 +21°C° 0.2 mm 4 m/s 756 mmHg 66%
    15:00 +20°C° 0.2 mm 4 m/s 755 mmHg 71%
    16:00 +20°C° 0.2 mm 4 m/s 755 mmHg 73%
    17:00 +19°C° 0.2 mm 4 m/s 755 mmHg 75%
    18:00 +19°C° 0.2 mm 4 m/s 755 mmHg 77%
    19:00 +18°C° 0 mm 4 m/s 755 mmHg 79%
    20:00 +17°C° 0 mm 4 m/s 755 mmHg 81%
    21:00 +15°C° 0 mm 4 m/s 754 mmHg 84%
    22:00 +15°C° 0.4 mm 4 m/s 754 mmHg 85%
    23:00 +14°C° 0.4 mm 4 m/s 754 mmHg 87%

    27 Mai, Luni

    Timp Temperatura Precipitaţii Vânt Presiune Umiditate
    00:00 +14°C° 0.4 mm 5 m/s 754 mmHg 88%
    01:00 +14°C° 0.5 mm 4 m/s 753 mmHg 89%
    02:00 +14°C° 0.5 mm 4 m/s 753 mmHg 90%
    03:00 +14°C° 0.5 mm 4 m/s 753 mmHg 91%
    04:00 +14°C° 0.1 mm 4 m/s 753 mmHg 89%
    05:00 +14°C° 0.1 mm 4 m/s 753 mmHg 87%
    06:00 +14°C° 0.1 mm 4 m/s 754 mmHg 85%
    07:00 +15°C° 0 mm 4 m/s 754 mmHg 77%
    08:00 +15°C° 0 mm 4 m/s 754 mmHg 68%
    09:00 +16°C° 0 mm 5 m/s 754 mmHg 59%
    10:00 +17°C° 0 mm 5 m/s 754 mmHg 55%
    11:00 +19°C° 0 mm 5 m/s 754 mmHg 51%
    12:00 +20°C° 0 mm 5 m/s 754 mmHg 46%
    13:00 +19°C° 0 mm 4 m/s 754 mmHg 47%
    14:00 +19°C° 0 mm 4 m/s 754 mmHg 48%
    15:00 +19°C° 0 mm 4 m/s 754 mmHg 48%
    16:00 +18°C° 0 mm 3 m/s 754 mmHg 51%
    17:00 +18°C° 0 mm 3 m/s 754 mmHg 53%
    18:00 +17°C° 0 mm 2 m/s 754 mmHg 56%
    19:00 +17°C° 0 mm 2 m/s 754 mmHg 58%
    20:00 +16°C° 0 mm 2 m/s 754 mmHg 60%
    21:00 +15°C° 0 mm 1 m/s 754 mmHg 62%
    22:00 +15°C° 0 mm 1 m/s 754 mmHg 67%
    23:00 +14°C° 0 mm 2 m/s 753 mmHg 72%

    28 Mai, Marţi

    Timp Temperatura Precipitaţii Vânt Presiune Umiditate
    00:00 +13°C° 0 mm 2 m/s 753 mmHg 76%
    01:00 +13°C° 0.1 mm 2 m/s 753 mmHg 79%
    02:00 +13°C° 0.1 mm 2 m/s 752 mmHg 82%
    03:00 +12°C° 0.1 mm 2 m/s 752 mmHg 85%
    04:00 +12°C° 0 mm 2 m/s 752 mmHg 83%
    05:00 +13°C° 0 mm 2 m/s 752 mmHg 82%
    06:00 +12°C° 0 mm 3 m/s 752 mmHg 80%
    07:00 +12°C° 0.2 mm 3 m/s 752 mmHg 78%
    08:00 +13°C° 0.2 mm 3 m/s 752 mmHg 75%
    09:00 +14°C° 0.2 mm 3 m/s 752 mmHg 72%
    10:00 +15°C° 0.4 mm 2 m/s 752 mmHg 69%
    11:00 +16°C° 0.4 mm 2 m/s 752 mmHg 66%
    12:00 +17°C° 0.4 mm 2 m/s 752 mmHg 63%
    13:00 +17°C° 0.4 mm 2 m/s 752 mmHg 63%
    14:00 +17°C° 0.4 mm 2 m/s 752 mmHg 62%
    15:00 +18°C° 0.4 mm 2 m/s 752 mmHg 62%
    16:00 +17°C° 0.5 mm 3 m/s 753 mmHg 67%
    17:00 +15°C° 0.5 mm 4 m/s 753 mmHg 72%
    18:00 +14°C° 0.5 mm 5 m/s 754 mmHg 76%
    19:00 +13°C° 0.1 mm 5 m/s 755 mmHg 76%
    20:00 +12°C° 0.1 mm 5 m/s 755 mmHg 77%
    21:00 +10°C° 0.1 mm 5 m/s 756 mmHg 77%
    22:00 +9°C° 0 mm 5 m/s 757 mmHg 76%
    23:00 +10°C° 0 mm 4 m/s 757 mmHg 75%

    29 Mai, Miercuri

    Timp Temperatura Precipitaţii Vânt Presiune Umiditate
    00:00 +8°C° 0 mm 4 m/s 758 mmHg 75%
    01:00 +7°C° 0 mm 4 m/s 758 mmHg 75%
    02:00 +8°C° 0 mm 3 m/s 759 mmHg 75%
    03:00 +7°C° 0 mm 3 m/s 759 mmHg 75%
    04:00 +8°C° 0 mm 3 m/s 759 mmHg 72%
    05:00 +9°C° 0 mm 3 m/s 760 mmHg 68%
    06:00 +9°C° 0 mm 3 m/s 760 mmHg 65%
    07:00 +10°C° 0 mm 4 m/s 761 mmHg 60%
    08:00 +11°C° 0 mm 4 m/s 761 mmHg 55%
    09:00 +13°C° 0 mm 4 m/s 761 mmHg 50%
    10:00 +13°C° 0 mm 4 m/s 761 mmHg 48%
    11:00 +14°C° 0 mm 4 m/s 761 mmHg 47%
    12:00 +14°C° 0 mm 4 m/s 761 mmHg 45%
    13:00 +14°C° 0 mm 4 m/s 761 mmHg 45%
    14:00 +15°C° 0 mm 4 m/s 761 mmHg 45%
    15:00 +16°C° 0 mm 3 m/s 762 mmHg 46%
    16:00 +14°C° 0 mm 3 m/s 762 mmHg 48%
    17:00 +14°C° 0 mm 3 m/s 762 mmHg 50%
    18:00 +14°C° 0 mm 2 m/s 762 mmHg 52%
    19:00 +14°C° 0 mm 2 m/s 763 mmHg 54%
    20:00 +13°C° 0 mm 2 m/s 763 mmHg 56%
    21:00 +12°C° 0 mm 2 m/s 764 mmHg 59%
    22:00 +10°C° 0 mm 2 m/s 764 mmHg 63%
    23:00 +10°C° 0 mm 2 m/s 764 mmHg 67%
    Arată mai mult